Погода в Чиже

Россия / Ненецкий автономный округ     67°05′13″N   44°22′43″E
темп.,
°C
ветер,
м/с
пор.,
м/с
влажн.,
%
обл.,
%
осадки,
мм/ч
давл.,
гПа
погр.,
м
17 мая, пн
пн1700:00+2св7117913 0.0 1013195
03:00+2св6975100 0.0 1014178
06:00+4св576894 0.0 1014222
09:00+7всв565889 0.0 1016364
12:00+9в335290 0.0 1017438
15:00+11в224971 0.0 1018600
18:00+11в4351100 0.0 1018382
21:00+8в565799 0.0 1018136
18 мая, вт
вт1800:00+7вюв44595 0.0 101966
03:00+8вюв44675 0.0 101830
06:00+11ююв23655 0.0 101894
09:00+13ю4663100 0.0 1018240
12:00+16ююз695877 0.0 1018448
15:00+17ююз61050100 0.0 1016506
18:00+16ю6115290 0.0 1015290
21:00+16ю7125683 0.0 1013150
19 мая, ср
ср1900:00+14ю8156487 0.0 1011226
03:00+12ю10187775 0.0 1010235
06:00+12ююз10188515 0.1 1009261
09:00+13ююз9158228 0.1 1010243
12:00+14зюз587828 0.0 1010154
15:00+14з467754 0.1 1010136
18:00+15юз237448 0.0 100977
21:00+14ю337621 0.0 100928
20 мая, чт
чт2000:00+15ю69635 0.0 100880
03:00+9юз611765 0.0 1009118
06:00+12ююз610725 0.0 1008120
09:00+16ююз8136919 0.0 1008241
12:00+14зюз6117353 0.1 1008197
15:00+14зюз6107327 0.9 1008198
18:00+13юз577894 0.4 100799
21:00+13юз468577 0.7 100766
21 мая, пт
пт2100:00+12ююз569635 0.1 100764
03:00+13ю118993 0.1 100611
06:00+11ююз5886100 0.0 1004119
09:00+10з558991 0.1 1005129
12:00+15зсз447349 0.1 1005249
15:00+17ссз556418 0.1 1004476
18:00+16св9106589 0.0 1004423
21:00+9св81180100 1.2 1005258